Weather History for KWST - September, 2013

Change the Weather History Date:

Tuesday, September 24, 2013

  Actual Average (KGON) Record (KGON)
Temperature  
Mean Temperature 54 °F -  
Max Temperature 68 °F 68 °F 83 °F (1959)
Min Temperature 42 °F 48 °F 32 °F (1963)
Degree Days  
Heating Degree Days 11    
Growing Degree Days 4 (Base 50)    
Moisture  
Dew Point 43 °F    
Average Humidity 71    
Maximum Humidity 93    
Minimum Humidity 42    
Precipitation  
Precipitation 0.00 in - - ()
Sea Level Pressure  
Sea Level Pressure 29.94 in    
Wind  
Wind Speed 3 mph (NW)    
Max Wind Speed 8 mph    
Max Gust Speed -    
Visibility 10 miles    
Events      
Averages and records for this station are not official NWS values.
T = Trace of Precipitation, MM = Missing Value Source: NWS Daily Summary

Daily Weather History Graph

Daily Weather History Graph

Search for Another Location

Airport or City:

Trip Planner

Search our weather history database for the weather conditions in past years. The results will help you decide how hot, cold, wet, or windy it might be!

Date:

Astronomy

Sep. 24, 2013 Rise Set
Actual Time 6:36 AM EDT 6:40 PM EDT
Civil Twilight 6:09 AM EDT 7:08 PM EDT
Nautical Twilight 5:37 AM EDT 7:40 PM EDT
Astronomical Twilight 5:04 AM EDT 8:13 PM EDT
Moon 9:52 PM EDT (9/24) 11:52 AM EDT (9/24)
Length of Visible Light 12h 58m
Length of Day
12h 03m
Waning Gibbous, 73% of the Moon is Illuminated
Sep 24
Waning Gibbous
Sep 26
Last Quarter
Oct 4
New
Oct 11
First Quarter
Oct 18
Full

Hourly Weather History & Observations

Time (EDT) Temp. Windchill Dew Point Humidity Pressure Visibility Wind Dir Wind Speed Gust Speed Precip Events Conditions
12:53 AM 45.0 °F - 43.0 °F 93% 30.03 in 10.0 mi Calm Calm - N/A   Clear
1:53 AM 44.1 °F - 42.1 °F 93% 30.03 in 10.0 mi Calm Calm - N/A   Clear
2:53 AM 44.1 °F - 42.1 °F 93% 30.01 in 10.0 mi Calm Calm - N/A   Clear
3:53 AM 43.0 °F - 41.0 °F 93% 30.01 in 10.0 mi Calm Calm - N/A   Clear
4:53 AM 43.0 °F 41.3 °F 39.9 °F 89% 30.01 in 10.0 mi Variable 3.5 mph - N/A   Clear
5:53 AM 43.0 °F 41.3 °F 39.9 °F 89% 30.01 in 10.0 mi WNW 3.5 mph - N/A   Clear
6:53 AM 42.1 °F 40.2 °F 39.9 °F 92% 30.02 in 10.0 mi West 3.5 mph - N/A   Clear
7:53 AM 45.0 °F 41.8 °F 39.9 °F 82% 30.00 in 10.0 mi WNW 5.8 mph - N/A   Clear
8:53 AM 48.9 °F - 41.0 °F 74% 29.99 in 10.0 mi Variable 5.8 mph - N/A   Clear
9:53 AM 52.0 °F - 41.0 °F 66% 29.96 in 10.0 mi WNW 5.8 mph - N/A   Clear
10:53 AM 55.9 °F - 42.1 °F 60% 29.94 in 10.0 mi NW 8.1 mph - N/A   Clear
11:53 AM 57.9 °F - 42.1 °F 56% 29.92 in 10.0 mi Variable 6.9 mph - N/A   Clear
12:53 PM 60.1 °F - 41.0 °F 49% 29.90 in 10.0 mi WNW 6.9 mph - N/A   Clear
1:53 PM 64.0 °F - 43.0 °F 46% 29.89 in 10.0 mi Variable 4.6 mph - N/A   Clear
2:53 PM 66.0 °F - 42.1 °F 42% 29.86 in 10.0 mi Variable 5.8 mph - N/A   Clear
3:53 PM 66.9 °F - 44.1 °F 44% 29.85 in 10.0 mi Variable 5.8 mph - N/A   Clear
4:53 PM 66.9 °F - 45.0 °F 45% 29.84 in 10.0 mi Variable 5.8 mph - N/A   Clear
5:53 PM 66.0 °F - 45.0 °F 47% 29.85 in 10.0 mi NW 3.5 mph - N/A   Clear
6:53 PM 57.9 °F - 48.0 °F 70% 29.86 in 10.0 mi Calm Calm - N/A   Clear
7:53 PM 55.9 °F - 46.9 °F 72% 29.88 in 10.0 mi NNW 3.5 mph - N/A   Clear
8:53 PM 55.0 °F - 46.9 °F 74% 29.89 in 10.0 mi Calm Calm - N/A   Clear
9:53 PM 55.9 °F - 43.0 °F 62% 29.91 in 10.0 mi North 5.8 mph - N/A   Clear
10:53 PM 52.0 °F - 45.0 °F 77% 29.92 in 10.0 mi Calm Calm - N/A   Clear
11:53 PM 46.9 °F - 45.0 °F 93% 29.94 in 10.0 mi Calm Calm - N/A   Clear